Wind_Speed
18 18 17 17 16 16 16 16 17 17 18 18 19 19 20 20 20 21 21 21 22 22 23 23 24 25 25 26 27 27 27 27 27 27 27 27 27 27 27 28 28 28 29 29 29 29 29 30 30 31 31 32 32 32 32 32 31 30 29 28 27 26 25 25 25 26 26 27 29
19 19 18 18 17 17 17 18 18 19 19 20 21 21 21 21 22 22 22 23 23 23 24 25 25 26 26 27 27 27 27 26 26 26 26 26 26 26 27 27 27 27 27 27 28 28 29 29 30 31 32 32 33 33 33 33 33 32 31 30 30 29 28 28 28 28 29 30 31
20 19 19 19 19 19 19 19 20 21 21 22 22 22 23 23 23 23 23 23 24 24 25 25 25 26 26 26 26 26 26 26 26 26 26 26 26 26 26 26 26 26 26 27 27 28 28 29 30 31 32 32 33 33 33 33 32 32 31 30 30 29 29 30 30 31 31 32 32
20 20 20 20 20 20 20 21 21 22 22 23 23 23 23 23 23 23 23 24 24 25 25 25 25 25 26 26 26 25 25 25 25 25 25 25 25 25 26 26 26 26 26 27 27 28 28 29 30 31 31 32 32 33 33 33 32 32 32 31 30 30 30 31 31 32 32 32 32
20 20 20 20 20 20 21 21 21 22 22 22 23 23 23 23 23 23 23 24 24 25 25 25 25 25 25 25 25 25 25 25 25 25 25 25 25 26 26 26 26 27 27 28 28 28 29 29 30 31 31 32 32 32 32 32 32 32 32 33 33 33 32 33 32 32 32 31 30
20 20 20 20 20 20 20 20 21 21 22 22 22 22 22 23 23 23 24 24 25 25 26 26 25 25 25 25 25 25 25 25 26 26 26 26 26 27 27 27 27 28 28 28 29 29 30 30 31 31 31 32 32 32 32 32 32 32 33 34 34 33 33 33 32 31 29 28 27
19 19 19 19 19 19 20 20 20 21 21 22 22 23 23 23 24 24 25 25 25 26 26 26 26 26 26 26 26 26 26 26 26 27 27 27 27 27 28 28 28 28 29 29 29 30 30 31 31 32 32 32 32 32 32 32 32 32 33 33 33 33 32 31 29 27 25 24 24
18 18 18 18 19 19 19 20 21 21 22 22 22 23 23 24 25 25 26 26 26 26 26 26 26 26 27 27 27 27 27 27 27 28 28 28 28 28 28 28 28 29 29 29 30 30 30 31 31 32 32 33 33 33 32 32 32 32 32 32 33 32 31 29 26 24 23 22 22
17 17 18 18 19 19 20 20 21 21 22 22 23 23 24 25 25 26 26 26 27 27 27 27 27 27 27 27 28 28 28 28 28 29 29 29 29 29 29 29 29 29 29 29 29 30 30 31 31 32 32 32 33 33 33 32 32 32 32 32 31 31 29 27 25 23 22 21 21
17 17 18 18 19 19 20 20 21 21 22 22 23 24 24 25 25 26 27 27 27 27 27 28 28 28 28 28 28 29 29 29 29 29 29 29 29 29 29 29 29 29 29 29 29 30 30 30 31 31 31 32 32 32 32 32 32 31 31 31 30 29 27 26 24 23 22 20 20
17 17 18 18 19 19 20 20 21 21 22 23 23 24 25 25 26 27 27 27 27 28 28 29 29 29 29 29 29 29 29 29 29 29 29 29 29 29 29 29 29 29 29 29 29 29 30 30 30 30 30 30 31 31 31 31 31 30 30 30 29 27 26 25 24 23 21 19 19
16 17 18 18 19 19 20 20 21 22 22 23 24 24 25 26 27 27 27 28 28 28 29 29 30 29 29 29 29 29 29 29 29 29 29 29 29 29 29 29 29 29 29 29 29 29 29 29 29 29 29 29 29 29 29 29 29 29 29 28 28 26 25 25 24 22 20 18 19
16 17 18 19 19 20 20 21 22 22 23 24 24 25 26 27 27 28 28 28 28 29 30 30 30 30 29 29 29 29 29 29 29 29 28 28 29 29 29 29 29 29 29 29 28 28 28 28 28 28 28 28 28 28 28 27 27 28 28 27 26 25 25 24 22 20 19 18 20
17 17 18 19 20 20 21 21 22 23 24 25 25 26 27 28 28 28 28 29 29 30 30 30 30 30 29 29 29 29 29 28 28 28 28 28 28 28 28 28 28 28 28 28 28 28 27 27 27 27 27 27 27 26 26 26 26 26 26 26 25 24 23 22 21 19 19 20 22
17 18 19 20 20 21 21 22 23 24 25 25 26 27 27 28 29 29 29 29 30 30 30 30 30 30 29 29 28 28 28 27 27 27 27 27 27 27 27 28 28 27 27 27 27 27 27 27 26 26 26 26 25 25 25 25 25 25 25 25 24 23 21 20 19 19 19 21 23
18 19 20 20 21 21 22 23 24 24 25 26 27 28 28 29 29 29 29 29 29 30 29 29 29 29 28 28 27 27 27 26 26 26 26 26 26 27 27 27 27 27 26 26 26 26 26 26 26 26 25 25 25 24 24 24 24 24 24 23 22 20 19 18 18 19 20 21 21
19 20 20 21 21 21 22 23 24 25 26 27 27 28 28 28 29 29 29 28 28 28 28 28 28 27 27 26 26 26 25 25 25 25 25 25 25 26 26 26 26 25 25 25 25 25 26 25 25 25 25 24 24 23 23 22 22 21 21 20 18 18 18 18 18 19 19 19 18
20 21 21 21 22 22 22 23 25 25 26 27 27 27 27 27 27 27 27 27 27 26 26 26 26 26 25 25 24 24 24 24 24 24 24 24 25 25 24 24 24 24 24 24 25 25 25 24 24 23 23 22 22 21 20 19 18 18 17 16 16 17 18 18 18 18 18 17 16
20 21 22 22 22 22 23 24 25 25 26 26 27 26 26 26 26 26 26 26 25 25 25 24 24 24 23 23 23 23 23 23 23 23 23 23 23 23 23 23 23 23 23 23 23 23 22 22 21 21 20 19 19 18 17 17 16 16 16 16 17 17 17 17 18 17 16 16 16
20 21 22 23 23 23 24 24 24 24 25 25 25 25 25 25 25 25 24 24 24 23 23 22 22 22 22 22 22 22 22 22 22 22 22 22 21 21 21 21 21 21 20 20 19 19 19 18 18 17 17 16 16 15 15 15 15 16 16 17 17 17 17 17 16 16 15 16 17
21 21 22 23 24 23 23 23 23 23 24 24 24 25 25 24 24 23 22 22 22 21 21 21 21 21 21 22 22 22 22 22 21 21 21 20 20 19 19 19 19 18 18 17 16 16 15 15 15 14 14 14 13 14 14 14 15 15 16 17 17 17 17 16 15 15 15 15 14
21 22 23 23 23 22 22 22 22 23 23 23 22 22 21 21 21 20 20 20 20 20 20 20 21 21 21 21 21 21 21 21 20 20 19 19 18 17 17 17 16 16 15 14 13 13 13 12 12 12 12 12 12 12 13 14 14 15 16 16 17 17 16 15 14 14 13 13 12
22 22 22 22 21 20 20 21 21 21 21 20 19 18 18 17 18 18 18 18 19 19 19 19 19 19 19 19 19 19 19 19 19 18 18 17 17 16 15 14 14 14 13 13 12 11 10 10 10 10 10 11 11 12 13 13 14 14 15 15 15 14 14 13 13 13 13 12 12
21 21 21 20 19 19 19 18 18 18 18 17 17 17 16 15 15 15 16 17 18 18 17 17 17 16 17 17 17 18 18 18 17 17 17 17 16 15 14 13 13 12 12 12 11 10 10 9 9 9 9 10 10 11 12 12 13 13 13 13 13 12 12 12 13 13 13 13 13
20 19 19 18 16 15 14 15 16 16 17 17 17 17 17 16 14 14 14 16 17 17 16 15 15 15 15 16 17 17 17 17 17 17 17 17 16 15 14 13 12 12 11 10 10 10 10 9 9 8 8 8 9 9 10 10 11 11 11 11 11 11 12 12 13 13 13 13 13
18 17 15 14 12 11 12 14 15 16 16 16 16 16 17 17 16 15 14 15 16 16 15 15 15 15 16 16 17 17 17 17 17 17 17 17 16 15 14 13 13 12 11 10 11 11 11 10 10 9 9 9 8 8 9 9 9 10 10 10 11 11 12 13 13 14 14 13 12
15 14 12 10 10 11 13 14 15 15 14 13 13 13 14 15 16 16 15 15 15 16 15 15 16 16 17 18 18 18 17 16 15 15 16 16 15 15 14 14 13 12 12 12 12 12 12 11 11 11 10 10 10 10 10 10 10 10 10 11 12 12 13 14 14 14 14 13 12
13 11 11 11 12 13 14 15 14 13 12 12 12 12 11 12 13 15 15 15 15 16 16 16 17 17 18 18 19 19 18 17 15 15 14 14 14 14 13 13 13 13 13 13 13 13 13 12 12 12 12 12 12 12 12 11 11 11 11 12 12 13 14 14 14 14 13 13 12
11 11 11 12 13 14 14 14 13 12 12 13 13 12 11 11 12 13 13 14 15 16 16 17 17 17 17 18 18 19 19 19 18 17 16 15 14 14 14 13 13 14 14 14 14 14 13 13 13 13 14 14 14 14 14 13 13 12 11 11 12 12 13 13 13 13 13 13 12
11 12 13 13 14 14 13 12 12 12 12 13 13 12 11 11 11 12 13 14 15 16 17 17 18 18 18 18 18 18 18 19 20 20 20 18 17 16 16 15 16 16 16 17 16 15 15 15 15 15 15 15 15 15 15 14 14 13 12 11 11 11 12 12 12 12 12 12 12
13 13 13 13 13 12 12 12 12 12 12 13 12 11 10 11 11 12 13 14 15 16 17 17 18 18 19 19 18 17 16 17 19 20 21 21 20 20 19 19 19 18 18 18 18 17 16 16 16 15 16 16 16 15 15 15 14 13 12 11 11 11 11 12 12 12 12 12 11
14 14 13 13 12 11 11 12 12 13 13 13 12 11 11 11 12 12 14 15 16 17 17 18 18 18 18 19 18 17 16 15 16 18 20 21 22 22 21 21 20 19 19 18 17 17 16 16 15 15 15 15 15 15 14 14 13 12 11 11 11 11 12 12 12 12 11 11 10
14 14 13 12 11 12 12 13 13 13 13 13 12 12 11 11 12 13 15 16 17 17 18 18 17 17 17 17 16 16 15 15 15 16 17 19 19 20 20 19 18 17 17 16 16 16 15 15 14 14 14 14 14 13 13 12 12 12 11 11 11 12 12 12 12 11 11 10 10
14 13 12 12 11 12 12 13 12 12 12 12 12 11 11 12 13 14 16 16 17 16 16 16 16 16 16 16 16 15 15 14 14 14 14 15 15 15 15 15 15 15 15 14 14 14 14 13 13 12 12 12 12 12 12 12 12 12 12 12 12 12 12 11 11 10 10 10 10
14 13 11 11 11 12 12 12 12 12 12 11 11 11 11 12 13 14 15 15 15 15 14 14 14 15 15 15 15 15 14 13 12 11 11 11 12 12 12 12 13 13 13 12 12 12 12 11 11 11 12 12 12 12 12 12 12 12 12 12 12 12 11 10 10 10 10 10 10
14 12 11 10 11 11 12 12 12 12 12 12 11 11 12 13 14 14 14 14 14 13 13 13 13 13 13 13 13 12 11 11 10 10 10 10 10 10 11 11 11 11 11 11 11 11 10 10 11 11 11 12 12 12 12 12 12 12 12 12 12 11 10 10 10 10 10 10 10
14 12 11 11 11 11 12 12 12 12 12 12 12 13 13 13 14 14 14 13 12 12 12 12 12 12 12 12 12 11 10 10 9 9 9 9 9 10 10 10 10 11 10 10 10 10 10 10 11 11 11 12 12 12 12 12 12 12 12 12 11 11 10 10 10 10 10 10 10
14 12 11 11 12 12 12 11 11 12 12 12 13 13 13 13 13 13 13 12 11 11 11 11 11 12 12 11 11 11 10 9 8 8 8 8 9 9 9 10 10 10 10 9 9 10 10 11 11 11 12 12 12 12 12 12 12 12 11 11 11 11 11 11 11 10 10 10 10
14 13 12 12 12 12 11 11 11 11 11 12 12 13 13 13 12 12 11 11 11 10 11 11 11 11 11 11 11 10 10 9 8 8 8 9 9 9 9 10 10 10 10 9 10 10 11 11 11 11 12 12 12 12 12 11 11 11 11 11 11 11 11 11 11 10 10 10 10
14 13 13 13 13 13 12 11 10 10 10 10 11 11 12 11 11 10 10 10 9 10 10 10 10 11 11 11 11 10 10 9 9 9 9 9 9 9 10 10 10 10 9 9 10 11 11 11 11 12 12 12 12 12 12 11 11 11 11 11 11 11 11 11 10 10 10 10 10
14 14 14 14 14 13 12 11 10 9 9 9 10 10 10 10 10 9 9 9 9 9 9 9 10 10 10 11 11 10 10 9 9 9 9 9 10 10 10 10 10 10 9 10 10 11 11 11 12 12 12 12 12 12 12 12 11 11 11 11 11 11 11 11 10 10 10 10 10
Wind_Direction
222 222 222 222 222 223 223 224 226 229 232 236 240 244 247 250 252 254 257 259 261 263 264 265 266 267 269 270 271 272 272 272 271 270 269 269 268 268 267 267 267 266 266 266 266 266 266 267 267 267 266 266 266 265 264 263 261 260 259 258 258 259 260 261 262 263 263 265 267
223 223 223 224 225 226 227 229 230 233 235 238 242 245 248 251 253 256 258 260 262 263 264 266 267 268 268 269 269 269 269 268 267 267 267 266 266 266 266 266 266 267 267 267 267 268 268 268 268 268 268 268 268 268 267 267 266 264 261 259 258 258 257 257 258 260 261 263 265
224 225 226 227 228 229 231 233 235 237 239 241 244 247 251 254 256 258 260 262 264 265 266 267 267 267 267 267 267 266 266 265 264 263 263 264 264 264 264 265 265 266 267 267 268 268 268 269 269 269 269 269 269 269 269 269 269 267 264 261 260 258 257 256 257 259 260 263 265
225 227 228 230 231 233 235 237 239 241 244 246 249 252 255 258 261 262 264 265 266 267 268 268 267 267 266 265 265 264 263 262 261 261 261 261 262 263 263 264 265 265 266 267 268 268 268 269 269 269 269 269 270 270 270 270 269 268 266 264 263 260 258 258 260 262 263 265 267
227 229 231 233 235 237 239 242 244 247 250 253 256 258 260 262 264 266 267 267 268 268 269 268 267 266 265 264 263 262 261 260 260 260 260 261 261 262 262 263 264 265 266 267 267 268 268 268 268 269 269 269 269 270 270 270 269 268 267 267 266 265 264 264 265 266 267 268 268
230 232 234 237 239 242 245 248 250 253 256 259 261 264 265 266 267 267 268 268 268 268 269 268 267 266 264 263 262 261 261 260 261 261 261 261 262 262 263 264 265 266 266 267 267 267 268 268 268 268 268 269 269 269 269 269 269 268 268 268 268 268 268 268 269 269 268 267 265
233 236 239 242 245 247 250 253 255 257 260 262 264 266 267 268 268 268 268 268 268 268 268 268 266 265 264 263 263 262 262 262 262 262 262 263 263 264 265 266 266 266 266 267 267 267 267 267 267 267 268 268 268 268 268 268 268 268 268 269 269 269 269 270 269 268 265 263 261
239 242 245 247 249 252 254 256 258 259 261 263 264 265 266 267 267 268 268 268 268 268 267 267 266 265 264 264 264 264 263 263 263 264 264 265 266 267 267 267 267 267 267 267 267 267 267 267 267 267 267 267 267 267 267 267 267 268 268 269 270 270 270 269 268 265 263 261 259
244 247 249 251 253 254 256 257 259 260 262 263 264 265 266 266 267 267 267 267 268 268 267 267 266 265 265 264 264 264 264 265 265 265 266 267 268 269 269 269 269 269 269 268 268 268 267 267 267 267 267 267 267 267 267 266 267 267 267 268 269 269 269 267 266 264 262 261 259
248 250 252 254 255 256 258 260 261 262 263 264 264 265 266 266 266 266 267 267 268 268 267 267 266 266 265 265 265 265 266 266 267 267 268 269 270 270 271 271 271 271 270 270 269 269 268 268 267 267 267 267 266 266 266 266 266 266 266 266 266 267 266 265 263 262 260 259 257
252 254 256 258 259 260 262 263 263 264 264 265 265 266 267 267 267 267 267 268 268 268 267 267 267 267 267 267 267 267 267 268 269 269 270 270 271 272 272 272 272 272 271 271 270 269 269 268 268 267 267 266 266 266 266 265 265 264 264 264 264 263 263 262 261 259 258 256 254
257 259 261 262 263 264 265 265 266 266 266 266 266 267 267 267 267 268 268 269 269 268 268 268 268 268 268 268 268 269 269 269 270 270 271 271 272 272 272 273 272 272 271 271 270 269 269 268 268 267 267 266 266 265 265 264 264 263 263 262 262 261 261 260 259 258 256 254 252
260 262 264 265 266 266 266 266 266 267 267 267 267 267 267 268 268 269 269 269 269 268 268 269 269 269 269 269 269 269 270 270 270 271 271 272 272 272 272 272 272 272 271 270 269 269 269 268 268 268 267 266 266 265 264 263 263 262 262 261 261 260 260 259 258 256 254 252 251
262 264 264 265 266 267 267 266 267 267 267 267 267 267 268 269 269 270 269 269 268 268 268 269 269 269 269 269 269 269 270 270 271 271 271 272 272 272 272 272 272 271 271 270 270 269 269 269 268 268 267 266 266 265 264 263 263 262 261 260 259 259 259 258 256 254 252 251 252
264 265 265 266 267 267 267 268 268 268 268 269 269 269 269 270 270 270 269 268 268 268 268 269 269 269 269 269 269 269 269 269 270 270 270 270 271 271 271 271 271 271 270 270 270 270 269 269 268 268 267 266 266 265 265 264 263 262 260 259 258 257 256 255 252 251 251 252 254
268 268 268 268 269 270 270 270 270 270 270 270 271 271 271 270 270 270 269 268 268 268 268 268 268 268 268 268 267 267 268 268 268 268 269 269 269 269 270 270 270 270 270 270 270 270 270 269 268 267 267 266 265 265 264 264 263 261 259 257 255 254 252 250 249 250 253 255 254
275 274 273 273 274 274 274 274 273 273 273 272 272 272 271 271 270 269 269 268 268 267 267 267 267 267 266 266 266 266 266 266 266 266 267 267 267 268 268 269 269 269 270 270 270 269 269 268 268 267 266 265 264 264 263 262 260 258 255 252 250 249 248 248 248 251 253 254 253
282 280 279 278 278 277 276 275 275 274 274 274 273 272 271 270 269 268 268 267 266 266 265 265 265 265 265 264 264 264 264 264 264 264 265 265 266 267 268 268 269 269 269 269 269 268 268 267 266 265 264 263 263 261 260 258 255 251 247 244 243 244 247 250 251 252 251 252 252
286 284 282 281 280 278 277 276 275 275 274 273 271 270 269 268 267 266 265 265 264 263 263 263 263 263 263 262 262 262 262 262 262 263 264 265 266 267 267 268 268 268 268 268 267 266 265 264 263 262 261 260 259 257 254 251 247 243 239 237 238 241 247 253 255 253 251 250 250
286 284 282 281 279 278 277 276 275 273 271 269 268 267 266 264 264 262 262 261 262 262 262 261 261 261 261 261 260 260 260 260 260 261 263 264 265 265 266 266 266 266 266 265 264 263 262 261 260 259 257 255 252 249 245 243 240 238 236 236 237 240 245 252 254 253 250 247 245
284 282 281 280 279 278 277 274 271 269 267 265 265 264 263 262 261 260 259 259 260 260 259 259 259 259 259 259 258 258 258 259 259 260 261 262 263 264 264 264 264 263 262 261 260 260 261 262 261 259 256 252 248 244 240 238 237 237 237 238 238 240 243 247 249 247 243 239 237
281 280 280 280 279 277 273 270 267 265 264 263 262 262 262 261 261 261 260 260 260 259 258 258 257 257 257 257 257 258 258 258 259 259 259 260 260 261 262 262 262 259 256 253 254 257 260 262 261 259 255 251 247 245 242 240 239 239 239 239 239 239 239 239 238 235 232 230 231
280 280 280 279 276 272 268 265 264 263 261 259 257 256 256 259 263 265 266 265 264 262 261 259 258 258 258 258 258 258 258 258 257 257 257 257 257 257 257 257 256 253 249 245 246 249 252 255 256 254 251 247 245 244 243 242 241 239 238 236 234 232 229 227 226 225 224 226 230
279 279 277 275 270 267 264 264 262 259 254 250 248 247 250 255 261 267 270 270 269 267 265 263 262 262 262 262 262 262 261 259 256 254 253 254 253 252 251 250 250 248 246 245 245 245 245 246 250 250 248 243 240 239 240 239 238 235 232 228 224 220 218 219 221 222 225 228 232
278 276 273 269 266 265 264 263 259 256 252 248 246 247 248 251 254 258 264 268 270 269 267 264 262 262 263 264 265 265 264 263 260 257 254 253 251 249 247 246 246 246 246 246 248 247 245 244 246 248 247 242 237 234 234 233 231 229 225 221 218 217 219 223 227 230 233 235 238
275 271 266 260 257 255 256 256 256 257 257 257 258 257 255 252 249 249 253 259 265 266 264 260 257 257 258 260 262 263 264 264 264 263 261 258 253 248 243 242 242 242 244 246 248 249 248 245 244 244 246 245 242 239 236 235 235 233 231 229 228 229 232 236 239 241 243 244 245
269 263 255 245 239 239 243 248 254 259 265 272 277 276 268 257 249 245 245 250 256 259 259 257 256 257 258 260 259 259 259 260 262 263 262 259 254 248 242 239 239 240 241 243 245 246 247 247 246 247 248 249 250 248 247 246 246 244 242 241 241 242 244 246 246 247 246 247 247
257 250 241 234 232 234 239 246 255 264 273 282 289 289 280 263 250 244 244 248 253 257 260 262 263 265 265 264 261 258 255 254 254 255 255 253 250 246 242 241 241 241 242 243 243 245 246 248 249 250 252 254 255 256 257 258 258 255 251 248 245 244 244 244 243 242 242 242 242
243 237 234 233 233 236 241 249 258 268 277 284 289 287 278 263 250 246 247 253 260 266 270 274 276 277 276 273 267 261 256 252 249 247 246 246 245 245 246 247 248 248 248 248 247 247 248 250 252 254 255 256 258 260 262 265 266 264 260 253 246 241 239 237 236 235 234 234 234
231 230 231 232 234 238 244 252 260 269 277 283 285 280 269 256 249 249 254 262 270 277 281 284 286 286 284 281 278 270 262 254 249 246 245 245 246 247 249 252 254 254 253 252 252 251 252 253 255 256 257 258 258 260 262 264 265 266 263 256 246 238 233 231 229 229 228 227 228
226 228 229 231 235 240 247 255 263 270 275 278 277 270 260 251 250 255 262 270 276 281 284 285 285 284 284 285 284 280 270 261 254 249 247 247 248 249 250 253 254 255 255 254 254 254 254 255 255 256 256 257 257 258 259 259 259 258 255 249 240 233 228 226 225 225 225 225 226
224 226 229 233 239 247 255 262 266 269 270 269 265 259 254 252 256 262 268 273 276 278 278 278 277 277 279 282 284 282 276 267 258 252 250 249 249 250 251 254 255 256 255 255 254 254 254 254 253 253 253 253 254 253 253 251 249 247 243 237 231 227 226 225 224 224 224 225 227
225 227 232 238 248 257 262 265 265 265 264 261 257 253 251 255 262 268 272 275 276 276 275 274 272 271 271 273 276 277 274 268 261 256 253 252 251 251 252 253 254 255 255 254 253 252 251 249 248 247 247 247 247 245 243 240 237 234 231 227 225 224 224 225 225 225 226 228 230
226 230 236 244 254 261 263 262 260 259 259 257 254 252 252 258 264 270 274 277 279 280 278 275 271 268 267 268 270 271 270 269 265 260 256 253 251 250 250 250 251 252 252 251 250 249 246 243 240 238 238 238 237 234 232 229 227 225 223 223 223 225 226 227 228 228 229 230 232
228 232 238 247 255 259 259 256 255 255 255 256 255 255 256 260 265 271 275 280 282 281 279 275 271 268 267 268 270 270 269 267 264 260 254 250 247 246 246 246 248 249 249 248 247 244 239 234 231 228 228 227 226 225 223 222 222 222 223 223 224 226 228 229 230 230 231 231 232
229 232 237 245 251 253 252 250 250 252 254 256 258 259 260 262 266 271 276 280 282 280 276 273 270 266 265 265 268 269 268 265 262 256 250 246 244 244 245 247 248 249 248 246 243 238 232 226 222 221 220 221 221 221 221 222 223 224 224 225 226 227 227 228 228 229 230 230 230
228 231 236 243 247 248 247 247 248 250 254 257 259 261 262 263 267 271 276 280 281 278 274 269 266 263 262 262 264 265 266 263 259 255 251 248 247 247 248 250 252 251 249 246 240 232 225 220 218 217 218 218 219 220 222 224 226 227 227 227 226 225 225 225 225 226 227 227 226
227 230 235 241 245 247 247 247 249 251 255 258 259 260 261 263 267 271 276 279 280 277 271 266 264 262 263 264 265 265 264 261 259 256 254 253 251 250 250 252 254 254 252 246 236 227 221 217 217 217 218 218 219 221 224 225 227 228 228 227 225 223 223 223 224 224 224 224 224
227 231 237 241 245 247 249 250 252 254 257 259 260 261 262 264 268 273 277 280 281 278 272 266 263 263 265 266 266 266 264 262 260 258 256 255 253 252 251 252 254 255 251 242 231 223 219 217 217 218 219 219 220 222 224 226 226 226 226 225 222 221 220 221 221 220 220 221 222
229 234 239 242 245 247 249 251 253 255 257 259 261 262 264 267 272 277 281 285 287 285 280 273 269 268 268 268 268 267 266 264 261 258 255 253 252 251 251 252 253 252 246 236 226 220 218 217 218 219 220 220 221 221 222 223 223 223 222 221 219 218 217 218 218 218 219 221 225
231 236 240 244 247 247 248 249 250 253 256 259 261 264 269 273 277 282 287 291 292 293 290 285 281 277 274 272 269 267 266 265 261 256 252 250 249 249 250 250 248 244 237 228 222 218 218 218 218 220 220 220 220 219 219 219 219 218 218 218 217 216 216 216 218 220 223 226 230
Height
1514 1515 1515 1516 1517 1518 1518 1519 1520 1521 1522 1523 1523 1523 1524 1525 1525 1525 1526 1526 1526 1526 1527 1527 1527 1528 1528 1528 1528 1528 1528 1528 1528 1528 1528 1528 1528 1528 1528 1528 1528 1528 1528 1528 1528 1528 1528 1528 1528 1528 1528 1528 1528 1529 1529 1529 1530 1530 1530 1531 1531 1531 1531 1531 1530 1530 1530 1529 1529
1513 1514 1515 1515 1516 1517 1518 1518 1519 1520 1521 1521 1522 1522 1523 1523 1523 1524 1524 1524 1525 1525 1525 1525 1526 1526 1526 1526 1526 1526 1527 1527 1527 1527 1526 1526 1526 1526 1526 1526 1526 1526 1526 1526 1526 1526 1526 1526 1526 1526 1526 1526 1526 1526 1526 1527 1527 1528 1528 1528 1528 1528 1528 1528 1528 1528 1528 1528 1528
1512 1513 1514 1515 1515 1516 1517 1518 1518 1519 1519 1520 1520 1521 1521 1522 1522 1522 1523 1523 1523 1523 1523 1523 1524 1524 1524 1524 1524 1524 1525 1525 1525 1525 1524 1524 1524 1524 1524 1524 1524 1524 1524 1523 1524 1524 1524 1524 1524 1523 1523 1523 1523 1524 1524 1524 1524 1525 1525 1525 1525 1526 1526 1526 1526 1526 1526 1526 1526
1511 1512 1513 1514 1514 1515 1516 1516 1517 1517 1518 1518 1518 1519 1519 1520 1520 1520 1520 1521 1521 1521 1521 1522 1522 1522 1522 1522 1522 1523 1523 1523 1523 1523 1523 1523 1523 1522 1522 1522 1522 1522 1522 1522 1522 1522 1522 1522 1522 1521 1521 1521 1521 1522 1522 1522 1522 1522 1522 1522 1523 1523 1523 1523 1523 1523 1523 1524 1524
1510 1511 1512 1513 1513 1514 1514 1515 1515 1516 1516 1516 1517 1517 1518 1518 1518 1518 1518 1518 1519 1519 1519 1519 1519 1520 1520 1520 1520 1520 1521 1521 1521 1521 1521 1521 1520 1520 1520 1520 1520 1520 1520 1520 1520 1520 1520 1520 1519 1519 1519 1519 1519 1519 1519 1520 1520 1520 1520 1520 1520 1520 1521 1521 1521 1521 1521 1521 1522
1509 1510 1511 1511 1512 1512 1513 1513 1513 1514 1514 1514 1515 1515 1515 1516 1516 1516 1516 1517 1517 1517 1517 1517 1518 1518 1518 1518 1518 1518 1518 1519 1519 1518 1518 1518 1518 1518 1518 1518 1518 1518 1518 1518 1518 1518 1518 1518 1518 1517 1517 1517 1517 1517 1518 1518 1518 1518 1518 1518 1518 1518 1518 1518 1518 1519 1519 1519 1519
1508 1509 1509 1510 1510 1511 1511 1511 1512 1512 1513 1513 1513 1513 1513 1514 1514 1514 1514 1514 1515 1515 1515 1515 1516 1516 1516 1516 1516 1516 1517 1517 1517 1516 1516 1516 1516 1516 1516 1516 1517 1516 1516 1516 1516 1516 1516 1516 1515 1515 1515 1515 1515 1515 1516 1516 1516 1515 1515 1515 1515 1515 1516 1516 1516 1517 1517 1517 1517
1507 1507 1508 1508 1508 1509 1509 1510 1510 1511 1511 1511 1512 1512 1512 1512 1512 1512 1512 1513 1513 1513 1513 1513 1514 1514 1514 1514 1514 1514 1514 1514 1514 1514 1514 1514 1514 1514 1514 1514 1514 1514 1514 1514 1514 1514 1514 1513 1513 1513 1513 1513 1513 1513 1513 1514 1513 1513 1513 1513 1513 1513 1513 1514 1514 1515 1515 1515 1515
1505 1506 1506 1507 1507 1508 1508 1508 1509 1509 1509 1510 1510 1510 1510 1510 1510 1510 1511 1511 1511 1511 1511 1512 1512 1512 1512 1512 1512 1512 1512 1512 1512 1512 1512 1512 1512 1512 1513 1513 1513 1512 1512 1512 1512 1512 1512 1511 1511 1511 1511 1511 1511 1511 1511 1512 1512 1512 1511 1511 1511 1511 1512 1512 1512 1513 1513 1513 1513
1504 1504 1505 1505 1506 1506 1507 1507 1507 1508 1508 1508 1508 1508 1508 1508 1508 1509 1509 1509 1509 1509 1509 1509 1510 1510 1510 1510 1510 1510 1510 1510 1510 1510 1510 1510 1510 1510 1510 1510 1510 1510 1510 1510 1510 1510 1509 1509 1509 1509 1509 1509 1509 1509 1509 1509 1509 1509 1509 1509 1509 1509 1510 1510 1510 1511 1511 1512 1512
1503 1503 1503 1504 1504 1505 1505 1505 1506 1506 1506 1506 1507 1507 1507 1507 1507 1507 1507 1507 1507 1507 1507 1507 1507 1508 1508 1508 1508 1508 1508 1508 1508 1508 1508 1508 1508 1508 1508 1508 1508 1508 1508 1508 1508 1507 1507 1507 1507 1507 1507 1507 1506 1507 1507 1507 1507 1507 1507 1507 1507 1508 1508 1508 1508 1509 1509 1510 1510
1502 1502 1502 1503 1503 1503 1503 1504 1504 1504 1504 1504 1505 1505 1505 1505 1504 1505 1505 1505 1505 1505 1505 1505 1505 1505 1505 1506 1505 1505 1505 1505 1505 1506 1506 1506 1506 1506 1505 1505 1505 1505 1505 1505 1505 1505 1505 1504 1504 1504 1504 1504 1504 1504 1504 1505 1505 1505 1505 1505 1505 1506 1506 1506 1507 1507 1508 1508 1509
1500 1501 1501 1501 1501 1502 1502 1502 1502 1503 1503 1503 1503 1503 1503 1503 1503 1503 1503 1503 1503 1503 1503 1503 1503 1503 1503 1503 1503 1503 1503 1503 1503 1503 1503 1503 1503 1503 1503 1503 1503 1503 1503 1503 1503 1503 1503 1502 1502 1502 1502 1502 1502 1502 1502 1503 1503 1503 1503 1503 1504 1504 1504 1505 1505 1506 1507 1507 1508
1499 1499 1499 1500 1500 1500 1500 1501 1501 1501 1501 1501 1501 1501 1500 1500 1500 1501 1501 1501 1501 1501 1501 1501 1501 1501 1501 1501 1501 1501 1501 1501 1501 1501 1501 1501 1501 1501 1501 1501 1501 1501 1501 1501 1501 1501 1500 1500 1500 1500 1500 1500 1500 1500 1500 1501 1501 1501 1501 1502 1502 1503 1503 1503 1504 1505 1505 1506 1507
1498 1498 1498 1498 1498 1499 1499 1499 1499 1499 1498 1498 1498 1498 1498 1498 1498 1498 1499 1499 1499 1498 1498 1498 1498 1499 1499 1499 1499 1499 1499 1499 1499 1499 1499 1499 1499 1499 1499 1499 1499 1499 1499 1499 1499 1499 1498 1498 1498 1498 1498 1498 1498 1498 1498 1499 1499 1499 1500 1500 1501 1501 1502 1502 1503 1503 1504 1504 1505
1496 1496 1496 1497 1497 1497 1497 1497 1497 1497 1496 1496 1496 1496 1496 1496 1496 1497 1497 1497 1497 1497 1497 1497 1497 1497 1497 1497 1497 1497 1497 1497 1497 1497 1497 1497 1497 1497 1497 1497 1497 1497 1497 1497 1497 1497 1497 1497 1497 1496 1496 1496 1496 1497 1497 1497 1497 1498 1498 1499 1499 1500 1501 1501 1502 1502 1503 1503 1503
1494 1494 1494 1495 1495 1495 1495 1495 1494 1494 1494 1494 1494 1494 1494 1494 1494 1494 1495 1495 1495 1495 1495 1495 1495 1495 1495 1495 1495 1495 1495 1495 1495 1495 1495 1495 1495 1495 1495 1495 1495 1495 1495 1495 1495 1495 1495 1495 1495 1495 1495 1495 1495 1495 1495 1496 1496 1496 1497 1498 1498 1499 1500 1500 1500 1501 1501 1501 1501
1493 1493 1493 1493 1493 1493 1493 1493 1493 1492 1492 1492 1492 1493 1493 1493 1493 1493 1493 1493 1493 1493 1493 1493 1493 1493 1493 1493 1493 1493 1493 1493 1493 1493 1493 1493 1493 1493 1493 1493 1493 1493 1493 1493 1493 1493 1493 1493 1493 1493 1493 1493 1493 1493 1494 1494 1495 1495 1496 1497 1497 1498 1498 1499 1499 1499 1499 1499 1500
1491 1491 1491 1491 1491 1491 1491 1491 1491 1491 1491 1491 1491 1491 1491 1491 1491 1491 1491 1491 1491 1491 1491 1491 1491 1491 1492 1492 1492 1492 1492 1492 1492 1492 1492 1492 1492 1492 1492 1492 1492 1492 1492 1492 1492 1492 1492 1492 1492 1492 1492 1492 1492 1492 1493 1493 1494 1494 1495 1495 1496 1497 1497 1497 1498 1498 1498 1498 1499
1489 1489 1489 1489 1489 1489 1489 1489 1489 1489 1489 1489 1489 1489 1489 1489 1489 1489 1489 1489 1489 1489 1489 1490 1490 1490 1490 1490 1490 1490 1490 1490 1490 1490 1490 1490 1491 1491 1491 1491 1491 1491 1491 1491 1491 1491 1491 1491 1491 1491 1491 1491 1491 1491 1492 1492 1493 1493 1493 1494 1495 1495 1496 1496 1496 1497 1497 1498 1498
1488 1488 1488 1488 1488 1488 1488 1488 1488 1488 1488 1488 1488 1488 1488 1488 1488 1488 1488 1488 1488 1488 1488 1488 1488 1488 1488 1488 1489 1489 1489 1489 1489 1489 1489 1489 1489 1489 1489 1489 1489 1489 1490 1490 1490 1490 1490 1490 1490 1490 1490 1490 1490 1490 1491 1491 1492 1492 1493 1493 1493 1494 1495 1495 1495 1496 1496 1497 1497
1487 1486 1486 1486 1486 1486 1486 1486 1486 1486 1486 1486 1486 1486 1486 1486 1486 1486 1486 1487 1487 1487 1487 1487 1487 1487 1487 1487 1488 1488 1488 1488 1488 1488 1488 1488 1488 1488 1488 1488 1488 1488 1489 1489 1489 1489 1489 1489 1489 1489 1489 1489 1489 1490 1490 1490 1491 1491 1492 1492 1493 1493 1494 1494 1495 1495 1495 1496 1496
1485 1485 1485 1485 1485 1485 1485 1485 1485 1485 1485 1485 1485 1485 1485 1485 1485 1485 1485 1485 1486 1486 1486 1486 1486 1486 1486 1486 1486 1486 1487 1487 1487 1487 1487 1488 1488 1488 1488 1488 1488 1488 1488 1488 1488 1488 1488 1488 1489 1489 1489 1489 1489 1489 1489 1490 1490 1490 1491 1491 1492 1492 1493 1493 1493 1494 1494 1495 1495
1483 1483 1483 1483 1483 1483 1483 1483 1483 1483 1483 1484 1484 1484 1484 1484 1484 1485 1484 1484 1484 1485 1485 1485 1485 1485 1485 1485 1485 1485 1485 1486 1486 1486 1486 1487 1487 1487 1487 1487 1487 1488 1488 1488 1488 1488 1488 1488 1488 1488 1488 1488 1488 1489 1489 1489 1489 1490 1490 1490 1491 1491 1492 1492 1493 1493 1493 1494 1495
1482 1482 1482 1482 1482 1482 1482 1482 1482 1483 1483 1483 1483 1483 1483 1484 1484 1484 1484 1484 1484 1484 1484 1484 1484 1484 1484 1484 1484 1484 1485 1485 1485 1485 1485 1485 1486 1486 1486 1487 1487 1487 1487 1487 1487 1487 1488 1488 1488 1488 1488 1488 1488 1488 1488 1489 1489 1489 1489 1490 1490 1491 1491 1492 1492 1493 1493 1493 1493
1480 1481 1481 1481 1481 1481 1482 1482 1482 1482 1482 1482 1483 1483 1483 1483 1483 1483 1483 1483 1483 1483 1483 1483 1483 1483 1484 1484 1484 1484 1484 1484 1484 1484 1484 1484 1485 1485 1486 1486 1486 1486 1487 1487 1487 1487 1487 1487 1488 1488 1488 1488 1488 1488 1488 1488 1488 1489 1489 1489 1490 1490 1491 1491 1491 1492 1492 1492 1493
1479 1480 1480 1480 1481 1481 1481 1481 1481 1481 1482 1482 1482 1482 1482 1482 1482 1483 1483 1483 1482 1482 1482 1483 1483 1483 1483 1483 1483 1483 1483 1483 1483 1483 1483 1484 1484 1484 1485 1485 1485 1486 1486 1486 1486 1487 1487 1487 1487 1487 1487 1487 1487 1487 1488 1488 1488 1488 1488 1489 1489 1489 1490 1490 1491 1491 1491 1491 1492
1478 1479 1479 1480 1480 1480 1480 1480 1481 1481 1481 1481 1481 1481 1481 1481 1481 1482 1482 1482 1482 1481 1482 1482 1482 1482 1482 1482 1482 1482 1482 1482 1483 1483 1483 1483 1483 1483 1484 1484 1484 1485 1485 1485 1485 1486 1486 1486 1486 1486 1486 1486 1487 1487 1487 1487 1487 1488 1488 1488 1488 1489 1489 1489 1490 1490 1490 1491 1491
1478 1478 1479 1479 1480 1480 1480 1480 1480 1480 1480 1481 1481 1481 1481 1481 1481 1481 1481 1481 1481 1481 1481 1481 1481 1481 1481 1480 1480 1480 1481 1481 1481 1482 1482 1482 1482 1482 1483 1483 1483 1483 1484 1484 1484 1485 1485 1485 1485 1485 1485 1486 1486 1486 1486 1486 1486 1487 1487 1487 1488 1488 1488 1488 1489 1489 1489 1490 1490
1478 1478 1478 1479 1479 1479 1479 1480 1480 1480 1480 1480 1480 1480 1480 1480 1480 1480 1480 1480 1480 1480 1480 1480 1479 1479 1479 1479 1479 1479 1479 1479 1480 1480 1480 1481 1481 1481 1481 1482 1482 1482 1483 1483 1483 1483 1484 1484 1484 1484 1485 1485 1485 1485 1485 1486 1486 1486 1486 1487 1487 1487 1488 1488 1488 1488 1489 1489 1490
1477 1478 1478 1478 1478 1479 1479 1479 1479 1479 1479 1479 1479 1479 1479 1479 1480 1480 1479 1479 1479 1479 1479 1479 1478 1478 1478 1478 1477 1478 1478 1478 1478 1478 1479 1479 1479 1480 1480 1480 1481 1481 1482 1482 1482 1483 1483 1483 1483 1483 1484 1484 1484 1484 1485 1485 1485 1485 1486 1486 1486 1487 1487 1488 1488 1488 1488 1489 1489
1476 1477 1477 1478 1478 1478 1478 1478 1478 1478 1478 1478 1479 1479 1479 1479 1479 1479 1479 1479 1478 1478 1478 1478 1478 1477 1477 1477 1476 1476 1476 1476 1477 1477 1477 1478 1478 1478 1479 1479 1480 1480 1480 1481 1481 1481 1481 1482 1482 1482 1483 1483 1483 1483 1484 1484 1484 1485 1485 1486 1486 1486 1487 1487 1487 1488 1488 1488 1488
1476 1476 1476 1477 1477 1477 1478 1478 1478 1478 1478 1478 1478 1478 1478 1478 1478 1478 1478 1478 1478 1477 1477 1477 1477 1476 1476 1476 1476 1475 1475 1475 1475 1476 1476 1476 1477 1477 1478 1478 1478 1479 1479 1479 1479 1480 1480 1481 1481 1481 1482 1482 1482 1483 1483 1483 1484 1484 1485 1485 1485 1486 1486 1486 1487 1487 1487 1488 1488
1475 1475 1476 1476 1477 1477 1477 1477 1477 1477 1477 1477 1477 1478 1478 1478 1478 1478 1477 1477 1477 1476 1476 1476 1476 1475 1475 1475 1475 1475 1474 1474 1474 1475 1475 1475 1476 1476 1476 1477 1477 1478 1478 1478 1478 1479 1479 1479 1480 1480 1481 1481 1482 1482 1483 1483 1483 1484 1484 1484 1485 1485 1485 1486 1486 1486 1486 1487 1487
1474 1475 1475 1475 1476 1476 1476 1476 1476 1476 1476 1477 1477 1477 1477 1477 1477 1477 1476 1476 1476 1475 1475 1475 1475 1475 1474 1474 1474 1474 1474 1474 1474 1474 1474 1474 1475 1475 1475 1476 1476 1477 1477 1477 1478 1478 1478 1479 1479 1480 1480 1481 1481 1481 1482 1482 1483 1483 1483 1484 1484 1484 1485 1485 1485 1486 1486 1486 1486
1473 1474 1474 1475 1475 1475 1475 1475 1476 1476 1476 1476 1476 1476 1476 1476 1476 1476 1475 1475 1475 1474 1474 1474 1474 1474 1474 1474 1473 1473 1473 1473 1473 1473 1474 1474 1474 1474 1474 1475 1475 1476 1476 1477 1477 1477 1478 1478 1478 1479 1479 1480 1480 1481 1481 1482 1482 1483 1483 1483 1483 1484 1484 1484 1485 1485 1485 1485 1486
1473 1473 1473 1474 1474 1475 1475 1475 1475 1475 1475 1475 1475 1475 1475 1475 1475 1475 1475 1474 1474 1474 1473 1473 1473 1473 1473 1473 1473 1473 1473 1473 1473 1473 1473 1473 1474 1474 1474 1474 1474 1475 1475 1476 1476 1477 1477 1478 1478 1478 1479 1479 1480 1480 1481 1481 1482 1482 1482 1483 1483 1483 1483 1484 1484 1484 1484 1485 1485
1472 1472 1473 1473 1474 1474 1474 1474 1474 1474 1474 1475 1475 1475 1475 1474 1474 1474 1474 1474 1473 1473 1473 1473 1473 1473 1473 1473 1473 1473 1473 1473 1473 1473 1473 1473 1473 1473 1473 1474 1474 1474 1475 1475 1476 1476 1477 1477 1478 1478 1478 1479 1479 1480 1480 1481 1481 1481 1482 1482 1482 1483 1483 1483 1483 1484 1484 1484 1485
1471 1472 1472 1473 1473 1473 1473 1473 1474 1474 1474 1474 1474 1474 1474 1474 1474 1474 1474 1473 1473 1473 1472 1472 1472 1472 1472 1472 1472 1472 1472 1472 1473 1473 1473 1473 1473 1473 1473 1473 1473 1474 1474 1475 1475 1476 1476 1477 1477 1478 1478 1478 1479 1479 1480 1480 1480 1481 1481 1481 1482 1482 1482 1483 1483 1483 1484 1484 1484
1470 1471 1471 1472 1472 1473 1473 1473 1473 1473 1473 1473 1473 1473 1473 1473 1473 1473 1473 1473 1473 1472 1472 1472 1472 1472 1472 1472 1472 1472 1472 1472 1472 1472 1473 1473 1473 1473 1473 1473 1473 1474 1474 1474 1475 1475 1476 1476 1477 1477 1478 1478 1478 1479 1479 1479 1480 1480 1480 1481 1481 1482 1482 1482 1483 1483 1483 1483 1484
1469 1470 1471 1471 1472 1472 1472 1472 1472 1473 1473 1473 1473 1473 1473 1473 1473 1473 1473 1472 1472 1472 1472 1472 1471 1471 1471 1471 1471 1471 1471 1472 1472 1472 1472 1472 1473 1473 1473 1473 1473 1473 1474 1474 1474 1475 1475 1476 1476 1477 1477 1478 1478 1478 1479 1479 1479 1479 1480 1480 1481 1481 1481 1482 1482 1483 1483 1483 1483